Location: Unspecified
(0.0000°N, 1.0000°E)
Time: 07:08:55
(UTC+01:00)

Daily predictions for brighter satellites

Satellite Brightness Start Highest point End
(mag) Time Altitude Azimuth Time Altitude Azimuth Time Altitude Azimuth
BREEZE M DEB (TANK) 4.0 19:14:11 10° NW 19:17:35 61° SW 19:28:54 10° SSE
Centaur D-1AR AC-41 3.1 19:25:07 10° WNW 19:29:14 60° SSW 19:33:27 10° ESE
Meteor 1-11 Rocket 3.9 19:24:22 10° S 19:29:49 52° E 19:35:20 10° NNE
Ariane H10-3 4.4 19:27:09 10° W 19:31:34 78° S 20:00:51 10° E
Cosmos 1850 Rocket 4.1 19:26:56 10° S 19:32:04 58° ESE 19:37:12 10° NNE
Cosmos 2219 3.2 19:33:15 10° S 19:38:56 66° ESE 19:44:37 10° NNE
Centaur D-1AR AC-48 3.6 19:36:13 10° SSW 19:39:34 25° SE 19:47:02 10° E
Okean 1 Rocket 3.1 19:42:45 10° S 19:47:09 62° E 19:51:34 10° NNE
Cosmos 2227 Rocket 3.6 19:45:00 10° SE 19:48:32 17° ESE 19:51:08 13° ENE
Okean 1 3.6 19:48:38 10° NNE 19:52:30 43° E 19:56:22 10° SSE
OAO 3 Rocket 4.3 19:49:10 10° WSW 19:53:48 40° NW 19:58:24 10° NNE
GPS 2-15 Rocket1 3.2 19:52:01 10° WSW 19:56:44 74° NNW 20:00:18 17° ENE
Delta 7925 Rocket 4.1 19:52:50 10° WNW 19:57:23 49° SSW 20:02:37 10° SE
Meteor 1-29 3.4 19:58:56 10° NNE 20:02:05 37° ESE 20:05:16 10° S
HJ-1C 4.0 20:01:55 10° SE 20:05:01 32° E 20:08:04 10° NNE
Cosmos 1980 Rocket 3.0 20:00:16 10° NNW 20:05:49 56° WSW 20:11:23 10° S
GPS 2-05 Rocket1 3.0 20:04:41 10° NW 20:08:18 77° SW 20:11:00 17° SE
OAO 2 Rocket 3.3 20:03:39 10° NW 20:08:55 79° NE 20:13:24 15° ESE
Cosmos 1812 3.9 20:07:44 10° NNW 20:11:25 45° W 20:15:07 10° SSW
SL-08 ROCKET BODY 4.3 20:05:37 10° S 20:11:40 78° E 20:17:48 10° N
ALOS 2.4 20:08:31 10° SSE 20:13:01 49° ENE 20:17:31 10° N
ARIANE 5 DEB (SYLDA) 2.8 20:11:32 10° W 20:15:23 61° S 20:17:35 24° ESE
ISS 0.0 20:14:08 10° WSW 20:15:25 12° SW 20:16:43 10° SSW
FengYun 1-2 T 4.3 20:11:57 10° SSE 20:17:16 50° ENE 20:22:32 10° N
XTE 3.3 20:14:58 10° SW 20:17:50 45° SSE 20:18:07 43° SE
Cosmos 2327 Rocket 4.3 20:15:42 10° S 20:21:48 78° E 20:27:58 10° N
BLOCK DM-SL R/B 3.4 20:18:31 10° W 20:23:22 85° S 20:26:57 28° E
Helios 1B rocket 3.2 20:24:13 10° N 20:28:14 53° WNW 20:32:16 10° SSW
Meteor 1-5 Rocket 4.5 20:25:30 10° S 20:31:22 78° W 20:37:20 10° N
Centaur D-1AR AC-36 2.7 20:18:20 10° WNW 20:34:47 53° NNE 20:36:18 40° ENE
SJ-6B 4.3 20:31:23 10° S 20:35:17 40° WSW 20:39:07 10° NNW
Resurs 01 Rocket 1.5 20:31:01 10° SSE 20:35:26 70° ENE 20:39:49 10° N
Atlas Centaur 2 3.3 20:30:15 10° WSW 20:37:21 46° NW 20:40:35 25° NNE
SL-16 R/B 2.1 20:33:03 10° NNW 20:38:42 83° ENE 20:44:23 10° SSE
SL-19 R/B 4.1 20:33:58 10° SSE 20:39:31 66° ENE 20:45:02 10° N
Cosmos 2074 Rocket 4.5 20:34:48 10° SSW 20:40:54 60° W 20:47:02 10° N
Cosmos 2184 Rocket 4.5 20:35:01 10° SSW 20:41:18 63° W 20:47:33 10° N
Ariane 42L R/B 4.0 20:42:57 10° WNW 20:43:35 16° NW 20:43:35 16° NW
Cosmos 2181 Rocket 4.2 20:39:28 10° N 20:45:47 76° W 20:52:12 10° S
Cosmos 2082 3.6 20:40:48 10° S 20:46:27 64° ESE 20:47:15 57° ENE
Palapa B4 Rocket 3.7 20:43:29 10° NW 20:46:19 36° NNW 20:46:19 36° NNW
Meteor 1-19 Rocket 4.1 20:41:39 10° N 20:47:25 84° E 20:53:17 10° S
BREEZE-M DEB (TANK) 3.4 20:45:01 10° SW 20:48:20 46° WSW 20:48:20 46° WSW
FENGYUN 3A 4.0 20:43:58 10° S 20:49:18 65° WSW 20:54:39 10° NNW
Cosmos 1238 Rocket 4.1 20:56:00 32° W 20:56:00 32° W 20:59:05 10° SSW
Cosmos 2322 Rocket 2.7 20:51:11 10° NNW 20:56:41 59° WSW 21:02:14 10° S
Resurs 1-3 4.0 20:54:16 10° S 21:03:03 - NNW 20:57:56 57° SSW
Cosmos 2341 Rocket 4.2 20:54:16 10° S 20:59:14 51° SE 20:59:14 51° SE
Spot 2 Rocket 4.0 20:58:26 10° S 21:03:23 58° WSW 21:08:19 10° NNW
Cosmos 2154 Rocket 4.1 21:03:35 10° S 21:09:54 75° W 21:12:37 36° N
Cosmos 2297 Rocket 2.3 21:07:14 10° SSW 21:12:13 68° SW 21:12:13 68° SW
CENTAUR R/B 4.2 21:06:41 10° NW 21:14:27 43° WSW 21:21:56 10° S
ARIANE 5 R/B 3.9 20:49:13 10° W 21:17:26 80° S 21:18:11 71° SE
ARIANE 5 R/B 3.6 12:35:15 10° W 21:30:29 87° S 21:30:44 84° SE
Cosmos 2227 Rocket 3.6 21:27:19 10° SW 21:32:18 32° WNW 21:33:03 31° WNW
